Flag for U.S.A. Weather past 2 weeks in New Orleans, Louisiana, U.S.A.

Now
80 °F

Passing clouds.


Feels Like: 83 °F
Forecast: 73 / 85 °F
Wind: 3 mph from East

Location: Lakefront Airport

Current Time: Aug 1, 2014 at 4:23:43 AM

Latest Report: Aug 1, 2014 at 3:53 AM


Visibility: 10 mi

Pressure: 29.96 "Hg

Humidity: 69%

Dew point: 69 °F

Location of New OrleansLocation

Historic Weather in New Orleans — Graph

°F

New Orleans temperature yesterday

Maximum temperature yesterday: 88 °F (at 3:53 PM)
Minimum temperature yesterday: 76 °F (at 3:53 AM)
Average temperature yesterday: 82 °F

Past Weeks' High & Low Weather Summary

 TemperatureHumidityPressure
High92 °F (Jul 27, 4:53 PM)97% (Jul 18, 5:00 PM)30.10 "Hg (Jul 18, 5:00 PM)
Low74 °F (Jul 18, 5:00 PM)36% (Jul 31, 5:53 PM)29.91 "Hg (Jul 18, 6:53 PM)
Average82 °F73%30.00 "Hg
* Reported Jul 17 2:53 AM — Aug 1 2:53 AM, New Orleans, Weather by CustomWeather, © 2014

Note: Actual official high and low records may vary slightly from our data, if they occured in-between our weather recording intervals... More about our weather records

Advertising

New Orleans weather history for previous 24 hours

 ConditionsComfort  
Time TempWeatherWind HumidityBarometerVisibility
2:53 AM
Aug 1
81 °FPassing clouds.3 mph67%29.96 "Hg10 mi
1:53 AM80 °FClear.6 mph67%29.97 "Hg10 mi
12:53 AM81 °FClear.3 mph67%29.98 "Hg10 mi
11:53 PM
Jul 31
80 °FClear.5 mph69%29.99 "Hg10 mi
10:53 PM81 °FClear.5 mph67%29.99 "Hg10 mi
9:53 PM82 °FClear.6 mph65%29.97 "Hg10 mi
8:53 PM82 °FSunny.6 mph65%29.97 "Hg10 mi
7:53 PM86 °FSunny.3 mph42%29.97 "Hg10 mi
6:53 PM87 °FSunny.No wind39%29.97 "Hg10 mi
5:53 PM87 °FSunny.3 mph36%29.97 "Hg10 mi
4:53 PM88 °FSunny.7 mph42%29.98 "Hg10 mi
3:53 PM88 °FPassing clouds.6 mph42%29.98 "Hg10 mi
2:53 PM87 °FSunny.6 mph43%30.00 "Hg10 mi
1:53 PM87 °FSunny.7 mph42%30.02 "Hg10 mi
12:53 PM85 °FScattered clouds.8 mph48%30.03 "Hg10 mi
11:53 AM85 °FPassing clouds.8 mph51%30.03 "Hg10 mi
10:53 AM83 °FScattered clouds.8 mph57%30.03 "Hg10 mi
9:53 AM81 °FPartly sunny.9 mph58%30.03 "Hg10 mi
8:53 AM80 °FScattered clouds.10 mph62%30.03 "Hg10 mi
7:53 AM77 °FSunny.10 mph71%30.01 "Hg10 mi
6:53 AM79 °FClear.9 mph72%30.00 "Hg10 mi
5:53 AM78 °FClear.8 mph71%29.98 "Hg10 mi
4:53 AM77 °FClear.3 mph69%29.98 "Hg10 mi
Weather by CustomWeather, © 2014

See weather overviewHow to use our weather pages